Other Public Products
Issued by NWS Charleston, SC

Current Version | Previous Version | Graphics & Text | Print | Product List | Glossary On
Versions: 1 2 3 4 5 6 7 8 9 10 11 12 13 14 15 16 17 18 19 20 21 22 23 24 25 26 27 28 29 30 31 32 33 34 35 36 37 38 39 40 41 42 43 44 45 46 47 48 49 50
000
FPUS82 KCHS 290127
OPUCHS

TEST...KCHS/KSAV Gateway Observations...TEST
National Weather Service Charleston SC
900 PM EDT FRI APR 28 2017

NOTE: "fair" indicates few or no clouds below 12,000 feet with no
significant weather and/or obstructions to visibility.

SCZ050-WAZ558-NCZ071-TXZ119-213-PAZ071-DCZ001-FLZ074-172-MI076-
NYZ176-178-MAZ016-IL014-TNZ027-NJZ106-GAZ044-MD014-290200-

...Gateway Observations for Charleston International...

CITY           SKY/WX    TMP DP  RH WIND       PRES   REMARKS
Chas Airport   PTCLDY    76  72  87 S9        30.12R
Seattle        PTSUNNY   59  37  44 W7        30.32F
Charlotte      MOCLDY    77  65  66 S5        30.07R
Dallas DFW     CLOUDY    83  71  67 SE10      29.55S
Dallas Love    CLOUDY    84  69  60 SE8       29.57R
Philladelphia  MOCLDY    74  58  57 S8        30.04R
Wash National  MOCLDY    76  63  64 S8        30.03R
Baltimore      PTCLDY    73  60  63 SE5       30.03R
Miami          CLOUDY    82  73  74 E18G24    30.08R
Detroit        CLOUDY    57  51  80 S9        29.95S
Newark         MOCLDY    77  40  26 SW8       30.02R
Laguardia      MOCLDY    77  50  38 S6        30.01R
J F K          MOCLDY    61  54  77 S3        30.04R
Boston Logan   PTCLDY    72  60  66 SW8       29.97R
Ft. Lauderdale MOCLDY    80  74  81 E20       30.08R
Chicago O`Hare CLOUDY    52  42  69 NE7       29.91R
Chicago Midway MOCLDY    51  44  77 NE8       29.91R
Houston Bush   MOCLDY    82  73  74 S20       29.66R
Houston Hobby  CLOUDY    80  74  81 SE14G23   29.66R
Nashville      PTCLDY    78  67  68 S7        29.90R
Atlanta        CLOUDY    79  66  64 S5        30.06R

$$

GAZ044-118-TXZ119-213-NCZ071-DCZ001-MDZ014-506-PAZ021-071-NJZ106-
NYZ176-178-MAZ106-OHZ011-021-055-MIZ076-KYZ091-ILZ014-INZ047-
MNZ060-ONZ431-290200-

...Gateway Observations for Savannah International...

CITY           SKY/WX    TMP DP  RH WIND       PRES   REMARKS
Savannah Arpt  PTCLDY    78  70  76 S10       30.10R
Atlanta        CLOUDY    79  66  64 S5        30.06R
Charlotte      MOCLDY    77  65  66 S5        30.07R
Dallas DFW     CLOUDY    83  71  67 SE10      29.55S
Houston Bush   MOCLDY    82  73  74 S20       29.66R
Wash National  MOCLDY    76  63  64 S8        30.03R
Wash Dulles    CLOUDY    75  61  61 SE10      30.01R
Baltimore      PTCLDY    73  60  63 SE5       30.03R
Philadelphia   MOCLDY    74  58  57 S8        30.04R
Newark         MOCLDY    77  40  26 SW8       30.02R
Laguardia      MOCLDY    77  50  38 S6        30.01R
J F K          MOCLDY    61  54  77 S3        30.04R
Boston         PTCLDY    72  60  66 SW8       29.97R
Pittsburg      LGT RAIN  66  47  50 E6        30.00R
Akron          CLOUDY    60  48  64 E9        30.03R
Cleveland      LGT RAIN  58  50  75 SE5       29.99F
Cincinnati     CLOUDY    68  61  78 SE13      29.82F THUNDER
Columbus       HVY RAIN  60  56  86 NE12      29.93S
Detroit        CLOUDY    57  51  80 S9        29.95S
Chicago O`Hare CLOUDY    52  42  69 NE7       29.91R
Minneapolis    MOCLDY    48  27  44 N10G17    30.02R
Indianapolis   CLOUDY    56  54  93 NE8       29.86R
Toronto Canada MOCLDY    61  41  48 SW10G23   29.96R

$$




USA.gov is the U.S. government's official web portal to all federal, state and local government web resources and services.